Location: Chagrin Falls Park
(41.4139°N, 81.3865°W)
Time: 09:19:22
(UTC+00:00)

Cosmos 2082 - Pass Details

Date: 29 October 2020
Orbit: 832 x 857 km, 71.0° (Epoch: 26 November)

Event Time Altitude Azimuth Distance (km) Brightness Sun altitude
Rises 23:17:06 0° 342° (NNW) 3,435 7.0 -10.6°
Reaches altitude 10° 23:19:45 10° 350° (N) 2,497 6.2 -11.1°
Maximum altitude 23:25:06 39° 59° (ENE) 1,271 4.2 -12.1°
Drops below altitude 10° 23:30:24 10° 127° (SE) 2,483 5.7 -13.0°
Enters shadow 23:31:45 - 132° (SE) 2,954 6.1 -13.3°
